This demonstration page uses our WeatherBlox Daily Observations layout. Learn more.

Left ArrowRight Arrow

Hourly Observations for July 6, 2020

Temp ( °F °C ) Dew Point ( °F °C ) Humidity (%) Winds ( mph kmh ) Pressure ( in mb ) Visibility ( mi km ) Precip ( " mm )
12:54 am 00:54 Clear 75 23.9 68 20 79 79 S 5 7 29.96 1015 10 16.0934 0 0
1:54 am 01:54 Clear 74 23.3 68 20 82 82 S 3 6 29.96 1015 10 16.0934 0 0
2:54 am 02:54 Clear 75 23.9 68 20 79 79 W 3 6 29.96 1014 9 14.48406 0 0
3:54 am 03:54 Clear with Mist and Fog 69 20.6 66 18.9 90 90 N 3 6 29.95 1014 6 9.65604 0 0
4:54 am 04:54 Clear 70 21.1 67 19.4 90 90 Calm 29.94 1014 7 11.26538 0 0
5:54 am 05:54 Clear with Mist and Fog 69 20.6 66 18.9 90 90 N 6 9 29.96 1015 6 9.65604 0 0
6:54 am 06:54 Sunny with Mist and Fog 71 21.7 67 19.4 87 87 Calm 29.98 1015 5 8.0467 0 0
7:54 am 07:54 Hazy 76 24.4 69 20.6 79 79 Calm 29.99 1016 6 9.65604 0 0
8:54 am 08:54 Sunny 79 26.1 69 20.6 72 72 S 3 6 30 1016 9 14.48406 0.001 0.001
9:54 am 09:54 Sunny 82 27.8 69 20.6 65 65 S 7 11 30.01 1016 10 16.0934 0 0
10:54 am 10:54 Sunny 85 29.4 69 20.6 59 59 SW 6 9 30.01 1016 10 16.0934 0 0
11:54 am 11:54 Sunny 87 30.6 67 19.4 51 51 VRB 5 7 29.99 1016 10 16.0934 0 0
12:54 pm 12:54 Mostly Sunny 87 30.6 67 19.4 51 51 S 6 9 29.98 1015 10 16.0934 0 0
1:54 pm 13:54 Mostly Cloudy 89 31.7 68 20 50 50 S 10 17 29.97 1015 10 16.0934 0 0
2:54 pm 14:54 Cloudy 87 30.6 68 20 53 53 SSE 7 11 29.97 1015 10 16.0934 0 0
3:54 pm 15:54 Mostly Sunny 90 32.2 67 19.4 47 47 SSW 13 20 29.95 1014 10 16.0934 0 0
4:54 pm 16:54 Sunny 89 31.7 67 19.4 48 48 SSE 10 17 29.93 1014 10 16.0934 0 0
5:54 pm 17:54 Sunny 89 31.7 68 20 50 50 S 13 20 29.92 1013 10 16.0934 0 0
6:54 pm 18:54 Mostly Sunny 88 31.1 68 20 52 52 S 12 19 29.93 1014 10 16.0934 0 0
7:54 pm 19:54 Sunny 85 29.4 68 20 57 57 S 7 11 29.94 1014 10 16.0934 0 0
8:54 pm 20:54 Sunny 83 28.3 68 20 61 61 S 5 7 29.94 1014 10 16.0934 0 0
9:54 pm 21:54 Clear 80 26.7 68 20 67 67 Calm 29.98 1015 10 16.0934 0 0
10:54 pm 22:54 Mostly Cloudy 78 25.6 70 21.1 76 76 N 14 22 30.01 1016 10 16.0934 0 0
11:54 pm 23:54 Clear 76 24.4 63 17.2 64 64 NNW 10 17 30.01 1016 10 16.0934 0 0

Powered by AerisWeather